When you browse on this site, cookies collect data to enhance your experience and personalize the content and advertising you see.
Visit our Privacy Policy to learn more. By continuing to use the site, you agree to this use of cookies and data.
  • en Belgique
  • Liste des pays
  • À 7 jours
  • Température de l'eau
  • Carte satellitaire
  • Carte météo
  • Widgets météo
  • user-avatar
    Se connecter

    Météo par heure à Anvers

    Ce jour, 18 Novembre, Dimanche

    Heure Température Précipitation Vent Pression Humidité
    00:00 +2°C° 0 mm 5 m/s 771 mmHg 66%
    01:00 +1°C° 0 mm 5 m/s 771 mmHg 66%
    02:00 +1°C° 0 mm 5 m/s 771 mmHg 67%
    03:00 +1°C° 0 mm 5 m/s 771 mmHg 68%
    04:00 +1°C° 0 mm 5 m/s 771 mmHg 68%
    05:00 +1°C° 0 mm 5 m/s 771 mmHg 68%
    06:00 0°C° 0 mm 5 m/s 771 mmHg 70%
    07:00 0°C° 0 mm 5 m/s 771 mmHg 67%
    08:00 +1°C° 0 mm 5 m/s 771 mmHg 64%
    09:00 +1°C° 0 mm 5 m/s 770 mmHg 60%
    10:00 +2°C° 0 mm 5 m/s 770 mmHg 56%
    11:00 +3°C° 0 mm 5 m/s 770 mmHg 52%
    12:00 +6°C° 0 mm 5 m/s 770 mmHg 48%
    13:00 +5°C° 0 mm 5 m/s 769 mmHg 48%
    14:00 +5°C° 0 mm 5 m/s 769 mmHg 48%
    15:00 +5°C° 0 mm 5 m/s 769 mmHg 48%
    16:00 +3°C° 0 mm 5 m/s 769 mmHg 48%
    17:00 +3°C° 0 mm 5 m/s 769 mmHg 47%
    18:00 +2°C° 0 mm 6 m/s 769 mmHg 46%
    19:00 +2°C° 0 mm 6 m/s 769 mmHg 48%
    20:00 +1°C° 0 mm 6 m/s 769 mmHg 49%
    21:00 +1°C° 0 mm 6 m/s 769 mmHg 51%
    22:00 +1°C° 0 mm 6 m/s 769 mmHg 60%
    23:00 +1°C° 0 mm 6 m/s 768 mmHg 69%

    Demain, 19 Novembre, Lundi

    Heure Température Précipitation Vent Pression Humidité
    00:00 +1°C° 0 mm 6 m/s 768 mmHg 78%
    01:00 +1°C° 0 mm 6 m/s 768 mmHg 82%
    02:00 +1°C° 0 mm 6 m/s 767 mmHg 86%
    03:00 +1°C° 0 mm 6 m/s 767 mmHg 90%
    04:00 +1°C° 0 mm 6 m/s 767 mmHg 89%
    05:00 +1°C° 0 mm 6 m/s 766 mmHg 88%
    06:00 +2°C° 0 mm 6 m/s 766 mmHg 88%
    07:00 +2°C° 0 mm 6 m/s 766 mmHg 84%
    08:00 +3°C° 0 mm 7 m/s 766 mmHg 80%
    09:00 +3°C° 0 mm 7 m/s 765 mmHg 76%
    10:00 +4°C° 0 mm 8 m/s 765 mmHg 70%
    11:00 +5°C° 0 mm 8 m/s 764 mmHg 65%
    12:00 +6°C° 0 mm 9 m/s 764 mmHg 59%
    13:00 +5°C° 0 mm 8 m/s 763 mmHg 60%
    14:00 +5°C° 0 mm 8 m/s 763 mmHg 62%
    15:00 +4°C° 0 mm 7 m/s 762 mmHg 63%
    16:00 +4°C° 0 mm 7 m/s 762 mmHg 65%
    17:00 +3°C° 0 mm 7 m/s 762 mmHg 66%
    18:00 +3°C° 0 mm 7 m/s 762 mmHg 68%
    19:00 +2°C° 0 mm 7 m/s 761 mmHg 69%
    20:00 +2°C° 0 mm 7 m/s 761 mmHg 70%
    21:00 +2°C° 0 mm 7 m/s 761 mmHg 71%
    22:00 0°C° 0 mm 7 m/s 760 mmHg 71%
    23:00 0°C° 0 mm 7 m/s 760 mmHg 72%

    Après-demain, 20 Novembre, Mardi

    Heure Température Précipitation Vent Pression Humidité
    00:00 0°C° 0 mm 7 m/s 760 mmHg 72%
    01:00 0°C° 0 mm 7 m/s 759 mmHg 72%
    02:00 0°C° 0 mm 7 m/s 759 mmHg 71%
    03:00 -1°C° 0 mm 7 m/s 758 mmHg 71%
    04:00 0°C° 0 mm 7 m/s 758 mmHg 70%
    05:00 0°C° 0 mm 7 m/s 758 mmHg 69%
    06:00 0°C° 0 mm 7 m/s 757 mmHg 69%
    07:00 0°C° 0 mm 7 m/s 757 mmHg 67%
    08:00 0°C° 0 mm 8 m/s 757 mmHg 66%
    09:00 +1°C° 0 mm 8 m/s 756 mmHg 65%
    10:00 +1°C° 0 mm 8 m/s 756 mmHg 63%
    11:00 +2°C° 0 mm 8 m/s 756 mmHg 61%
    12:00 +2°C° 0 mm 8 m/s 755 mmHg 58%
    13:00 +3°C° 0 mm 7 m/s 755 mmHg 59%
    14:00 +3°C° 0 mm 7 m/s 755 mmHg 60%
    15:00 +3°C° 0 mm 6 m/s 755 mmHg 61%
    16:00 +2°C° 0 mm 6 m/s 755 mmHg 65%
    17:00 +2°C° 0 mm 6 m/s 755 mmHg 69%
    18:00 +1°C° 0 mm 6 m/s 755 mmHg 73%
    19:00 +1°C° 0 mm 5 m/s 755 mmHg 75%
    20:00 0°C° 0 mm 5 m/s 755 mmHg 77%
    21:00 0°C° 0 mm 5 m/s 755 mmHg 79%
    22:00 0°C° 0 mm 5 m/s 756 mmHg 80%
    23:00 0°C° 0 mm 5 m/s 756 mmHg 81%

    21 Novembre, Mercredi

    Heure Température Précipitation Vent Pression Humidité
    00:00 -1°C° 0 mm 5 m/s 756 mmHg 83%
    01:00 -1°C° 0 mm 4 m/s 756 mmHg 85%
    02:00 -1°C° 0 mm 4 m/s 756 mmHg 87%
    03:00 -1°C° 0 mm 4 m/s 756 mmHg 89%
    04:00 -1°C° 0 mm 4 m/s 756 mmHg 88%
    05:00 -1°C° 0 mm 4 m/s 756 mmHg 86%
    06:00 +1°C° 0 mm 3 m/s 756 mmHg 85%
    07:00 +1°C° 0 mm 3 m/s 757 mmHg 82%
    08:00 +2°C° 0 mm 3 m/s 757 mmHg 80%
    09:00 +2°C° 0 mm 3 m/s 758 mmHg 77%
    10:00 +3°C° 0 mm 3 m/s 758 mmHg 75%
    11:00 +4°C° 0 mm 3 m/s 758 mmHg 73%
    12:00 +5°C° 0 mm 2 m/s 758 mmHg 71%
    13:00 +5°C° 0 mm 2 m/s 758 mmHg 72%
    14:00 +5°C° 0 mm 2 m/s 758 mmHg 72%
    15:00 +5°C° 0 mm 2 m/s 759 mmHg 73%
    16:00 +5°C° 0 mm 2 m/s 759 mmHg 76%
    17:00 +4°C° 0 mm 3 m/s 760 mmHg 79%
    18:00 +3°C° 0 mm 3 m/s 760 mmHg 82%
    19:00 +3°C° 0 mm 3 m/s 760 mmHg 83%
    20:00 +3°C° 0 mm 3 m/s 761 mmHg 84%
    21:00 +4°C° 0 mm 2 m/s 761 mmHg 86%
    22:00 +4°C° 0.1 mm 2 m/s 761 mmHg 86%
    23:00 +3°C° 0.1 mm 2 m/s 761 mmHg 87%

    22 Novembre, Jeudi

    Heure Température Précipitation Vent Pression Humidité
    00:00 +4°C° 0.1 mm 1 m/s 761 mmHg 88%
    01:00 +4°C° 0.1 mm 1 m/s 761 mmHg 88%
    02:00 +4°C° 0.1 mm 1 m/s 762 mmHg 89%
    03:00 +4°C° 0.1 mm 1 m/s 762 mmHg 89%
    04:00 +4°C° 0 mm 1 m/s 762 mmHg 91%
    05:00 +3°C° 0 mm 1 m/s 762 mmHg 92%
    06:00 +3°C° 0 mm 1 m/s 762 mmHg 93%
    07:00 +3°C° 0 mm 1 m/s 762 mmHg 91%
    08:00 +4°C° 0 mm 1 m/s 762 mmHg 89%
    09:00 +3°C° 0 mm 2 m/s 763 mmHg 87%
    10:00 +5°C° 0 mm 1 m/s 763 mmHg 82%
    11:00 +6°C° 0 mm 1 m/s 763 mmHg 78%
    12:00 +7°C° 0 mm 1 m/s 763 mmHg 73%
    13:00 +7°C° 0 mm 1 m/s 763 mmHg 75%
    14:00 +7°C° 0 mm 1 m/s 763 mmHg 76%
    15:00 +7°C° 0 mm 1 m/s 763 mmHg 78%
    16:00 +6°C° 0 mm 1 m/s 764 mmHg 81%
    17:00 +5°C° 0 mm 1 m/s 764 mmHg 84%
    18:00 +4°C° 0 mm 1 m/s 764 mmHg 87%
    19:00 +3°C° 0 mm 2 m/s 764 mmHg 88%
    20:00 +3°C° 0 mm 2 m/s 765 mmHg 89%
    21:00 +3°C° 0 mm 2 m/s 765 mmHg 90%
    22:00 +3°C° 0 mm 2 m/s 765 mmHg 90%
    23:00 +2°C° 0 mm 2 m/s 765 mmHg 91%

    23 Novembre, Vendredi

    Heure Température Précipitation Vent Pression Humidité
    00:00 +2°C° 0 mm 2 m/s 765 mmHg 91%
    01:00 +2°C° 0 mm 2 m/s 765 mmHg 91%
    02:00 +2°C° 0 mm 2 m/s 766 mmHg 91%
    03:00 +2°C° 0 mm 2 m/s 766 mmHg 92%
    04:00 +2°C° 0 mm 2 m/s 766 mmHg 92%
    05:00 +2°C° 0 mm 2 m/s 766 mmHg 92%
    06:00 +2°C° 0 mm 2 m/s 766 mmHg 92%
    07:00 +3°C° 0 mm 2 m/s 766 mmHg 90%
    08:00 +3°C° 0 mm 2 m/s 766 mmHg 88%
    09:00 +4°C° 0 mm 2 m/s 766 mmHg 85%
    10:00 +6°C° 0 mm 2 m/s 766 mmHg 81%
    11:00 +7°C° 0 mm 2 m/s 766 mmHg 76%
    12:00 +8°C° 0 mm 2 m/s 766 mmHg 72%
    13:00 +8°C° 0 mm 2 m/s 765 mmHg 75%
    14:00 +8°C° 0 mm 2 m/s 765 mmHg 78%
    15:00 +7°C° 0 mm 2 m/s 765 mmHg 81%
    16:00 +6°C° 0 mm 2 m/s 765 mmHg 84%
    17:00 +6°C° 0 mm 2 m/s 765 mmHg 86%
    18:00 +5°C° 0 mm 2 m/s 765 mmHg 89%
    19:00 +5°C° 0 mm 2 m/s 765 mmHg 90%
    20:00 +4°C° 0 mm 2 m/s 765 mmHg 90%
    21:00 +4°C° 0 mm 2 m/s 765 mmHg 91%
    22:00 +4°C° 0 mm 2 m/s 765 mmHg 91%
    23:00 +4°C° 0 mm 2 m/s 765 mmHg 91%
    Voir plus